Location: Unspecified
(48.8656°N, 0.0000°E)
Time: 11:04:10
(UTC+00:00)

SR - Pass Details

Date: 28 June 2019
Orbit: 580 x 875 km, 66.7° (Epoch: 16 July)

Event Time Altitude Azimuth Distance (km) Brightness Sun altitude
Rises 01:34:51 0° 183° (S) 2,788 - -15.0°
Reaches altitude 10° 01:37:18 10° 171° (S) 1,892 - -14.8°
Exits shadow 01:38:29 16° 159° (SSE) 1,522 ? -14.8°
Maximum altitude 01:40:51 27° 113° (ESE) 1,148 ? -14.6°
Drops below altitude 10° 01:44:30 10° 56° (NE) 1,948 ? -14.4°
Sets 01:47:03 0° 44° (NE) 2,888 ? -14.2°
